Tracking 20945 objects as of 8-Jul-2020
HD Live streaming from Space Station
objects crossing your sky now

USA 276

Track USA 276 now!
10-day predictions
USA 276 is classified as:


NORAD ID: 42689
Int'l Code: 2017-022A
Perigee: 386.0 km
Apogee: 409.6 km
Inclination: 50.0 °
Period: 92.4 minutes
Semi major axis: 6768 km
RCS: Unknown
Launch date: May 1, 2017
Source: United States (US)
Launch site: AIR FORCE EASTERN TEST RANGE (AFETR)
aabbcc
Your satellite tracking list
Your tracking list is empty




NASA's NSSDC Master Catalog

Two Line Element Set (TLE):
1 42689U 17022A   20186.61863600 0.00003000  00000-0  37441-4 0    07
2 42689  50.0010  19.1251 0017418 282.8312 201.3840 15.58964727    05
Source of the keplerian elements: McCants